sat.trackr.live / text

‹ back to catalog

STARLINK-37954

NORAD 69558 · 2026-135N

PAYLOAD ACTIVE UNKNOWN

§ Identity

Operator
Country
US
Launch date
2026-06-15
Launch site
AFWTR
Launch vehicle
Mass (kg)
RCS (m²)

Purposes: comms

External: N2YO · Heavens-Above · Gunter

§ Orbital elements

Epoch: 2026-09-19T22:22:00.289056Z

Period
93.91 min
Inclination
97.2851°
Eccentricity
0.0000530
Mean motion
15.33456052 rev/d
Perigee alt
465.1 km
Apogee alt
465.9 km
Semi-major
6,843.6 km
B*
3.4285e-4
RAAN
290.6315°
Arg perigee
87.3339°
Mean anomaly
272.7964°
Rev number
1,491

§ Raw data

STARLINK-379541 69558U 26135N   26262.93194779  .00011013  00000+0  34285-3 0  99972 69558  97.2851 290.6315 0000530  87.3339 272.7964 15.33456052 14910

JSON: /api/v1/satellites/69558 · /tle

For live sub-satellite position, see the globe view (requires WebGL).

§ Visibility from observer

Set your observer location to see the next 7 days of passes ≥ 10°. The values pass through the URL so the page stays shareable.

No JS? Fill the form by hand. The geolocation button needs JavaScript.